[[{"header":{"parameterUnit":"m.s-1","parameterCategory":1,"la1":30.2991,"la2":30.254,"lo1":-89.0895,"lo2":-89.0444,"dy":0.0017,"dx":0.0017,"nx":28,"ny":28,"refTime":"2024-06-21T09:00:00:Z","depth":0,"parameterNumber":2,"parameterNumberName":"U-component_of_WINDS"},"data":[0,0,0,0,0,0,0,0,0,0,0,0,0,0,0,0,0,0,0,0,0,0,0,0,0,0,0,0,0,0,0,0,0,0,0,0,0,0,0,0,0,0,0,0,0,0,0,0,0,0,0,0,0,0,0,0,0,0,-5.9537,-5.9537,0,-5.9499,-5.9499,-5.9498,-5.9342,-5.9339,-5.9335,-5.9332,-5.9294,-5.9297,-5.9299,0,0,0,0,0,0,0,0,0,0,0,0,0,-5.9477,-5.9479,-5.9537,-5.9537,-5.9536,-5.9499,-5.9499,-5.9498,-5.9343,-5.9338,-5.9334,-5.933,-5.9293,-5.9296,-5.9299,0,0,0,0,0,0,0,0,0,0,0,0,0,-5.9478,-5.948,-5.9537,-5.9454,-5.9446,-5.95,-5.9499,-5.9498,-5.9344,-5.9338,-5.9333,-5.9328,-5.9293,-5.9296,-5.9299,-5.943,0,0,-5.931,-5.9312,0,0,0,0,0,0,0,0,-5.9478,-5.948,-5.9467,-5.946,-5.9451,-5.942,-5.9464,-5.9475,-5.9345,-5.9383,-5.9331,-5.9325,-5.9341,-5.934,-5.9345,-5.9428,-5.9427,-5.9311,-5.9313,-5.9314,-5.9315,0,0,0,0,0,0,0,-5.9478,-5.9481,-5.9522,-5.9467,-5.9457,-5.942,-5.9414,-5.9465,-5.9393,-5.9379,-5.9368,-5.9365,-5.9335,-5.9342,-5.9343,-5.9426,-5.9311,-5.9314,-5.9316,-5.9317,-5.9618,-5.9623,0,0,0,0,0,0,-5.949,-5.9482,-5.9523,-5.9521,-5.9452,-5.9425,-5.9418,-5.9436,-5.9392,-5.938,-5.937,-5.9358,-5.9338,-5.9339,-5.9341,-5.9492,-5.9314,-5.9318,-5.932,-5.9612,-5.9619,-5.9625,0,0,0,0,0,0,-5.9489,-5.9495,-5.9525,-5.9498,-5.9499,-5.9432,-5.9452,-5.9438,-5.9444,-5.9385,-5.9371,-5.939,-5.9334,-5.9336,-5.9409,-5.9489,-5.9319,-5.9323,-5.9605,-5.9614,-5.9622,-5.9796,0,0,0,0,0,0,-5.9488,-5.9496,-5.9544,-5.9501,-5.9501,-5.9594,-5.9457,-5.9441,-5.945,-5.9434,-5.94,-5.9389,-5.933,-5.9405,-5.9413,-5.949,-5.9325,-5.9598,-5.9609,-5.9619,-5.9783,-5.9809,-5.9832,0,0,0,0,0,-5.9486,-5.9594,-5.9547,-5.9553,-5.956,-5.9599,-5.9599,-5.9529,-5.9457,-5.9506,-5.9468,-5.939,-5.9479,-5.9414,-5.9422,-5.9501,-5.9592,-5.9606,-5.9618,-5.9772,-5.9804,-5.9832,0,0,0,0,0,0,-5.9648,-5.9587,-5.9534,-5.9631,-5.9622,-5.9572,-5.9631,-5.9565,-5.9576,-5.9561,-5.9474,-5.9467,-5.9555,-5.9535,-5.9464,-5.9627,-5.9522,-5.9538,-5.9636,-5.9667,-5.9691,-5.9694,-5.9328,0,0,0,0,0,-5.9695,-5.9731,-5.9676,-5.9766,-5.9764,-5.97,-5.9713,-5.966,-5.9647,-5.9642,-5.961,-5.9601,-5.9626,-5.9645,-5.9666,-5.9779,-5.977,-5.9838,-5.9863,-5.9883,-5.9898,-5.9958,-5.9988,-5.9668,-5.9668,-5.9668,0,0,-5.9792,-5.9763,-5.9791,-5.9798,-5.9785,-5.9825,-5.9697,-5.9744,-5.9774,-5.9649,-5.9717,-5.9694,-5.9678,-5.9773,-5.9813,-5.9759,-5.9985,-5.99,-5.9917,-5.992,-5.9975,-6.0006,-6.0033,-5.9677,-5.9676,-5.9674,0,0,-5.999,-5.9971,-6.0046,-6.0035,-6.0016,-5.9973,-5.9991,-5.9953,-5.9932,-5.9999,-5.9907,-5.9941,-5.9987,-5.998,-5.9983,-6.0181,-6.011,-6.019,-6.032,-6.038,-6.0405,-6.0427,-6.05,-6.0526,-6.0205,-6.0205,-6.0205,0,-6.0113,-6.017,-6.0092,-6.0147,-6.0153,-6.0043,-6.0119,-6.0112,-6.0102,-6.0109,-6.0049,-6.0106,-6.0087,-6.018,-6.0229,-6.0234,-6.0253,-6.0194,-6.0408,-6.0429,-6.0448,-6.0516,-6.0544,-6.0215,-6.0214,-6.0213,-6.0212,0,-6.0323,-6.0364,-6.0426,-6.042,-6.0433,-6.0498,-6.0432,-6.0455,-6.0401,-6.0365,-6.0435,-6.0409,-6.0424,-6.0441,-6.0389,-6.0528,-6.0495,-6.0423,-6.0317,-6.049,-6.0553,-6.0578,-6.0229,-6.0226,-6.0223,-6.022,0,0,-6.0621,-6.0572,-6.0596,-6.0592,-6.0565,-6.0595,-6.0656,-6.067,-6.0692,-6.0689,-6.0739,-6.0781,-6.0715,-6.0718,-6.0664,-6.0717,-6.0878,-6.0638,-6.0636,-6.0685,-6.1031,-6.1086,-6.1118,-6.0831,-6.0835,-6.0839,-6.1033,0,-6.081,-6.0911,-6.0844,-6.0956,-6.0994,-6.0891,-6.0944,-6.0933,-6.0901,-6.0929,-6.0893,-6.0926,-6.0835,-6.0836,-6.0884,-6.0849,-6.0947,-6.0833,-6.0877,-6.088,-6.0885,-6.115,-6.1208,-6.1392,-6.1057,-6.1061,-6.1064,0,-6.1044,-6.1053,-6.1169,-6.1135,-6.1149,-6.1198,-6.1206,-6.1234,-6.1221,-6.1194,-6.1199,-6.1132,-6.1191,-6.1086,-6.1166,-6.1091,-6.1105,-6.1091,-6.1096,-6.1098,-6.0983,-6.116,-6.1449,-6.1477,-6.1101,-6.1098,-6.1095,0,-6.1252,-6.1292,-6.1366,-6.1366,-6.1329,-6.1366,-6.1353,-6.1334,-6.1347,-6.1355,-6.1363,-6.1378,-6.1387,-6.14,-6.134,-6.1269,-6.1429,-6.1319,-6.141,-6.1412,-6.1448,-6.1447,-6.1744,-6.1456,-6.1456,-6.1455,-6.1455,0,-6.1471,-6.1547,-6.1459,-6.1506,-6.1588,-6.1511,-6.1595,-6.157,-6.1555,-6.1595,-6.1507,-6.1547,-6.1465,-6.1497,-6.145,-6.1525,-6.1529,-6.151,-6.1497,-6.1518,-6.1521,-6.1527,-6.1513,-6.1463,-6.1461,-6.146,-6.1458,0,-6.1716,-6.1661,-6.1736,-6.1695,-6.1687,-6.175,-6.1715,-6.1757,-6.1719,-6.1772,-6.178,-6.1721,-6.1755,-6.1696,-6.1722,-6.1691,-6.1796,-6.1762,-6.18,-6.1791,-6.1885,-6.1878,-6.2198,-6.2236,-6.1923,-6.1926,-6.1929,0,-6.186,-6.1916,-6.1882,-6.1903,-6.1894,-6.1929,-6.1942,-6.187,-6.1888,-6.1879,-6.1922,-6.1948,-6.1965,-6.2024,-6.1984,-6.2004,-6.1971,-6.2082,-6.1974,-6.1994,-6.1975,-6.1973,-6.1978,-6.2105,-6.2109,-6.2112,-6.2114,0,-6.2122,-6.2093,-6.2115,-6.213,-6.2149,-6.2157,-6.2158,-6.2181,-6.2104,-6.2129,-6.2162,-6.2176,-6.2203,-6.2231,-6.2242,-6.2228,-6.216,-6.2149,-6.2171,-6.2194,-6.2214,-6.2206,-6.1862,-6.2142,-6.2139,-6.2137,-6.2135,-6.2134,-6.2321,-6.2367,-6.2351,-6.238,-6.2374,-6.2378,-6.2416,-6.2384,-6.241,-6.2427,-6.2382,-6.2427,-6.2414,-6.2422,-6.2416,-6.2451,-6.2401,-6.2433,-6.2442,-6.2451,-6.2467,-6.2209,-6.2452,-6.2451,-6.245,-6.245,-6.2449,0,-6.258,-6.2565,-6.2593,-6.2598,-6.2622,-6.2555,-6.2554,-6.2578,-6.2618,-6.2612,-6.2631,-6.2671,-6.2698,-6.2662,-6.2683,-6.2717,-6.2687,-6.2725,-6.2723,-6.2721,-6.2508,-6.2488,-6.275,-6.275,-6.275,-6.275,-6.275,-6.275,-6.2717,-6.2791,-6.276,-6.2831,-6.2815,-6.2859,-6.2864,-6.2868,-6.2863,-6.2911,-6.2933,-6.2909,-6.2892,-6.2911,-6.2933,-6.2922,-6.2934,-6.2985,-6.2963,-6.2765,-6.2736,-6.2708,-6.2688,-6.2988,-6.2988,-6.3172,-6.3174,-6.3175]},{"header":{"parameterUnit":"m.s-1","parameterCategory":1,"la1":30.2991,"la2":30.254,"lo1":-89.0895,"lo2":-89.0444,"dy":0.0017,"dx":0.0017,"nx":28,"ny":28,"refTime":"2024-06-21T09:00:00:Z","depth":0,"parameterNumber":3,"parameterNumberName":"V-component_of_WINDS"},"data":[0,0,0,0,0,0,0,0,0,0,0,0,0,0,0,0,0,0,0,0,0,0,0,0,0,0,0,0,0,0,0,0,0,0,0,0,0,0,0,0,0,0,0,0,0,0,0,0,0,0,0,0,0,0,0,0,0,0,-1.1346,-1.1346,0,-1.1372,-1.1373,-1.1373,-1.1356,-1.1356,-1.1355,-1.1354,-1.1382,-1.1383,-1.1385,0,0,0,0,0,0,0,0,0,0,0,0,0,-1.128,-1.1281,-1.1345,-1.1346,-1.1346,-1.1372,-1.1373,-1.1373,-1.1356,-1.1356,-1.1355,-1.1354,-1.1381,-1.1383,-1.1385,0,0,0,0,0,0,0,0,0,0,0,0,0,-1.1307,-1.1281,-1.1345,-1.1341,-1.1341,-1.1372,-1.1373,-1.1373,-1.1357,-1.1356,-1.1354,-1.1353,-1.1381,-1.1383,-1.1385,-1.1422,0,0,-1.1392,-1.1393,0,0,0,0,0,0,0,0,-1.1306,-1.131,-1.1341,-1.1341,-1.1341,-1.136,-1.1359,-1.139,-1.1357,-1.1351,-1.1354,-1.1353,-1.1376,-1.1378,-1.1386,-1.1424,-1.1425,-1.1392,-1.1393,-1.1394,-1.1395,0,0,0,0,0,0,0,-1.1304,-1.1309,-1.1356,-1.1342,-1.1342,-1.1338,-1.134,-1.1365,-1.1369,-1.1351,-1.135,-1.1353,-1.1375,-1.1384,-1.1386,-1.1425,-1.1392,-1.1394,-1.1395,-1.1396,-1.1494,-1.1495,0,0,0,0,0,0,-1.1302,-1.1307,-1.1355,-1.1357,-1.132,-1.134,-1.1343,-1.1355,-1.1369,-1.137,-1.1354,-1.1353,-1.138,-1.1384,-1.1387,-1.1431,-1.1394,-1.1396,-1.1398,-1.1492,-1.1494,-1.1495,0,0,0,0,0,0,-1.1301,-1.1307,-1.1354,-1.1332,-1.1337,-1.1342,-1.1356,-1.1356,-1.1365,-1.1371,-1.1372,-1.1362,-1.138,-1.1384,-1.1413,-1.1432,-1.1397,-1.1399,-1.1491,-1.1493,-1.1495,-1.152,0,0,0,0,0,0,-1.1299,-1.1306,-1.1321,-1.1332,-1.1339,-1.138,-1.1357,-1.1358,-1.1368,-1.1366,-1.1379,-1.138,-1.1379,-1.141,-1.1416,-1.1434,-1.1401,-1.1489,-1.1492,-1.1494,-1.1517,-1.1522,-1.1527,0,0,0,0,0,-1.1297,-1.1327,-1.1322,-1.1328,-1.1357,-1.1381,-1.1385,-1.1383,-1.137,-1.1384,-1.1388,-1.138,-1.1429,-1.1413,-1.1419,-1.1439,-1.1488,-1.1491,-1.1494,-1.1515,-1.1521,-1.1526,0,0,0,0,0,0,-1.1319,-1.1329,-1.1323,-1.1358,-1.1369,-1.1379,-1.1397,-1.139,-1.1405,-1.1403,-1.14,-1.1403,-1.1433,-1.1439,-1.1422,-1.1475,-1.1456,-1.1461,-1.1471,-1.1476,-1.1481,-1.1479,-1.1403,0,0,0,0,0,-1.1327,-1.1347,-1.1354,-1.1384,-1.139,-1.1392,-1.1403,-1.1401,-1.1412,-1.1417,-1.1423,-1.1435,-1.1453,-1.1465,-1.1482,-1.1518,-1.152,-1.1534,-1.1538,-1.1542,-1.1546,-1.1565,-1.1571,-1.1505,-1.1505,-1.1505,0,0,-1.1346,-1.1354,-1.1366,-1.1389,-1.1397,-1.1417,-1.1397,-1.1419,-1.1433,-1.142,-1.1448,-1.1453,-1.1466,-1.1498,-1.1513,-1.1504,-1.1565,-1.1546,-1.1549,-1.1551,-1.1569,-1.1575,-1.158,-1.1507,-1.1506,-1.1506,0,0,-1.139,-1.1398,-1.1424,-1.1432,-1.1444,-1.1445,-1.1452,-1.1462,-1.1465,-1.1493,-1.1483,-1.15,-1.1531,-1.154,-1.1549,-1.1594,-1.1587,-1.16,-1.1625,-1.1643,-1.1648,-1.1653,-1.1669,-1.1675,-1.1604,-1.1604,-1.1604,0,-1.1412,-1.1441,-1.1438,-1.146,-1.147,-1.1458,-1.1484,-1.1492,-1.151,-1.1517,-1.1506,-1.1544,-1.1552,-1.1586,-1.1597,-1.1604,-1.1611,-1.1599,-1.1648,-1.1652,-1.1656,-1.1672,-1.1678,-1.1605,-1.1605,-1.1605,-1.1605,0,-1.1467,-1.1488,-1.1507,-1.1523,-1.1535,-1.1559,-1.1559,-1.1571,-1.1567,-1.1569,-1.1597,-1.1605,-1.1624,-1.1631,-1.1628,-1.1665,-1.1659,-1.1648,-1.1629,-1.1664,-1.1679,-1.1685,-1.1607,-1.1607,-1.1606,-1.1606,0,0,-1.1528,-1.154,-1.1548,-1.1555,-1.1567,-1.1582,-1.1605,-1.1622,-1.1633,-1.1645,-1.1664,-1.169,-1.1679,-1.1689,-1.1686,-1.1702,-1.1737,-1.1689,-1.1689,-1.1698,-1.1778,-1.1787,-1.1794,-1.1732,-1.1733,-1.1734,-1.1777,0,-1.1572,-1.1613,-1.1609,-1.1647,-1.1665,-1.1653,-1.1673,-1.1683,-1.1685,-1.17,-1.1702,-1.1721,-1.1706,-1.1711,-1.1727,-1.173,-1.1754,-1.1727,-1.175,-1.175,-1.1748,-1.1802,-1.1811,-1.1852,-1.1783,-1.1784,-1.1785,0,-1.1631,-1.1644,-1.1684,-1.1692,-1.1699,-1.1717,-1.1732,-1.1747,-1.1757,-1.1758,-1.1768,-1.1762,-1.1784,-1.1764,-1.1795,-1.1777,-1.1785,-1.1788,-1.179,-1.1793,-1.177,-1.1806,-1.1865,-1.1872,-1.1794,-1.1793,-1.1792,0,-1.1671,-1.1699,-1.1726,-1.1732,-1.1742,-1.1755,-1.176,-1.1769,-1.1779,-1.1791,-1.1798,-1.1813,-1.1822,-1.1834,-1.1832,-1.1817,-1.1863,-1.1843,-1.1864,-1.1864,-1.1875,-1.1875,-1.1937,-1.188,-1.188,-1.188,-1.188,0,-1.1722,-1.1747,-1.1744,-1.1761,-1.1788,-1.1783,-1.181,-1.1813,-1.182,-1.1837,-1.1828,-1.1844,-1.184,-1.1855,-1.1854,-1.1879,-1.1883,-1.1884,-1.1884,-1.1885,-1.1885,-1.1892,-1.1889,-1.1881,-1.1881,-1.1881,-1.188,0,-1.1772,-1.1771,-1.18,-1.1807,-1.1809,-1.1828,-1.1834,-1.185,-1.185,-1.1872,-1.1876,-1.1877,-1.1895,-1.1894,-1.1914,-1.1913,-1.1945,-1.1941,-1.1942,-1.1941,-1.1962,-1.196,-1.2031,-1.204,-1.1977,-1.1978,-1.1978,0,-1.1805,-1.1824,-1.1832,-1.1843,-1.1848,-1.1865,-1.1875,-1.1871,-1.1881,-1.1893,-1.1907,-1.1924,-1.1937,-1.1966,-1.1969,-1.1984,-1.1981,-1.2004,-1.1983,-1.1984,-1.1981,-1.198,-1.1982,-1.2009,-1.201,-1.201,-1.2011,0,-1.1864,-1.1862,-1.1877,-1.1891,-1.1903,-1.1914,-1.1925,-1.1934,-1.193,-1.1942,-1.196,-1.197,-1.1991,-1.2007,-1.2022,-1.2026,-1.2018,-1.2017,-1.2023,-1.2025,-1.2025,-1.2026,-1.1954,-1.2016,-1.2015,-1.2015,-1.2015,-1.2014,-1.1907,-1.1923,-1.1931,-1.1947,-1.1954,-1.1963,-1.1978,-1.198,-1.1994,-1.201,-1.2006,-1.2026,-1.2035,-1.2053,-1.2059,-1.2074,-1.2066,-1.2074,-1.2076,-1.2078,-1.2081,-1.2022,-1.2077,-1.2076,-1.2076,-1.2076,-1.2076,0,-1.1965,-1.197,-1.1985,-1.1999,-1.2011,-1.2001,-1.2011,-1.2023,-1.2041,-1.2049,-1.2062,-1.2082,-1.2097,-1.2101,-1.2116,-1.2127,-1.2124,-1.2131,-1.2131,-1.2132,-1.2088,-1.2081,-1.2134,-1.2134,-1.2134,-1.2134,-1.2134,-1.2134,-1.1997,-1.2023,-1.2022,-1.2051,-1.2055,-1.2074,-1.2081,-1.2089,-1.2095,-1.2118,-1.2131,-1.2132,-1.2138,-1.2154,-1.2167,-1.2168,-1.2174,-1.2183,-1.2182,-1.2141,-1.2135,-1.213,-1.2124,-1.2184,-1.2185,-1.2225,-1.2226,-1.2226]}]]